Location: Bay Shore Mobile Home Park
(38.5762°N, 75.0841°W)
Time: 20:37:09
(UTC+00:00)

Cosmos 468 Rocket - Pass Details

Date: 15 November 2025
Orbit: 740 x 774 km, 74.0° (Epoch: 08 December)

Event Time Altitude Azimuth Distance (km) Brightness Sun altitude
Rises 23:02:04 0° 349° (N) 3,229 7.2 -14.8°
Reaches altitude 10° 23:04:38 10° 358° (N) 2,294 6.4 -15.3°
Maximum altitude 23:09:25 36° 65° (ENE) 1,174 4.4 -16.2°
Enters shadow 23:12:46 18° 123° (ESE) 1,803 5.5 -16.8°
